EHI
0 0 0 0 0 0 0 0 0 0 0 0 0 0 1 1 1 0 0 0 0 0 0 1 1 1 0 0 0 0 0 0 1 0 0 0 0 1 0 0 0 0 0
0 0 0 0 0 0 0 0 0 0 0 0 0 0 0 0 0 0 0 0 0 0 0 0 0 0 0 0 0 0 0 0 1 0 0 0 0 1 0 0 0 0 0
0 0 0 0 0 0 0 0 0 0 0 0 0 0 0 0 0 0 0 0 0 0 0 0 0 0 1 1 1 0 0 0 0 0 0 0 0 0 0 0 0 0 0
0 0 0 0 0 0 0 0 0 0 0 0 0 0 0 0 0 0 0 0 0 0 0 0 0 0 1 1 1 0 0 0 0 0 0 0 0 0 0 0 0 0 0
0 0 0 0 0 0 0 0 0 0 0 0 0 0 0 0 0 0 0 0 0 0 0 0 0 0 0 1 1 1 1 0 0 0 0 0 0 0 0 0 0 0 0
0 0 0 0 0 0 0 0 0 0 0 0 0 0 0 0 0 0 0 0 0 0 0 0 0 0 0 0 1 1 1 1 0 0 0 0 0 0 0 0 0 0 0
0 0 0 0 0 0 0 0 0 0 0 0 0 0 0 0 0 0 0 0 0 0 0 0 0 0 0 0 0 1 1 1 1 0 0 0 0 0 0 0 0 0 0
0 0 0 0 0 0 0 0 0 0 0 0 0 0 0 0 0 0 0 0 0 0 0 0 0 0 0 0 0 0 0 1 1 0 0 0 0 0 0 0 0 0 0
0 0 0 0 0 0 0 0 0 0 0 0 0 0 0 0 0 0 0 0 0 0 0 0 0 0 0 0 0 0 0 0 0 0 0 0 0 0 0 0 0 0 0
0 0 0 0 0 0 0 0 0 0 0 0 0 0 0 0 0 0 0 0 0 0 0 0 0 0 0 0 0 0 0 0 0 0 0 0 0 0 0 0 0 0 0
0 0 0 0 0 0 0 0 0 0 0 0 0 0 0 0 0 0 0 0 0 0 0 0 0 0 0 0 0 0 0 0 0 0 0 0 0 0 0 0 0 0 0
0 0 0 0 0 0 0 0 0 0 0 0 0 0 0 0 0 0 0 0 0 0 0 0 0 0 0 0 0 0 0 0 0 0 0 0 0 0 0 0 0 0 0
0 0 0 0 0 0 0 0 0 0 0 0 0 0 0 0 0 0 0 0 0 0 0 0 0 0 0 0 0 0 0 0 0 0 0 0 0 0 0 0 0 0 0
0 0 0 0 0 0 0 0 0 0 0 0 0 0 0 0 0 0 0 0 0 0 0 0 0 0 0 0 0 0 0 0 0 0 0 0 0 0 0 0 0 0 0
0 0 0 0 0 0 0 0 0 0 0 0 0 0 0 0 0 0 0 0 0 0 0 0 0 0 0 0 0 0 0 0 0 0 0 0 0 0 0 0 0 0 0
0 0 0 0 0 0 0 0 0 0 0 0 0 0 0 0 0 0 0 0 0 0 0 0 0 0 0 0 0 0 0 0 0 0 0 0 0 0 0 0 0 0 0
0 0 0 0 0 0 0 0 0 0 0 0 0 0 0 0 0 0 0 0 0 0 0 0 0 0 0 0 0 0 0 0 0 0 0 0 0 0 0 0 0 0 0
0 0 0 0 0 0 0 0 0 0 0 0 0 0 0 0 0 0 0 0 0 0 0 0 0 0 0 0 0 0 0 0 0 0 0 0 0 0 0 0 0 0 0
0 0 0 0 0 0 0 0 0 0 0 0 0 0 0 0 0 0 0 0 0 0 0 0 0 0 0 0 0 0 0 0 0 0 0 0 0 0 0 0 0 0 0
0 0 0 0 0 0 0 0 0 0 0 0 0 0 0 0 0 0 0 0 0 0 0 0 0 0 0 0 0 0 0 0 0 0 0 0 0 0 0 0 0 0 0
0 0 0 0 0 0 0 0 0 0 0 0 0 0 0 0 0 0 0 0 0 0 0 0 0 0 0 0 0 0 0 0 0 0 0 0 0 0 0 0 0 0 0
0 0 0 0 0 0 0 0 0 0 0 0 0 0 0 0 0 0 0 0 0 0 0 0 0 0 0 0 0 0 0 0 0 0 0 0 0 0 0 0 0 0 0
0 0 0 0 0 0 0 0 0 0 0 0 0 0 0 0 0 0 0 0 0 0 0 0 0 0 0 0 0 0 0 0 0 0 0 0 0 0 0 0 0 0 0
0 0 0 0 0 0 0 0 0 0 0 0 0 0 0 0 0 0 0 0 0 0 0 0 0 0 0 0 0 0 0 0 0 0 0 0 0 0 0 0 0 0 0
0 0 0 0 0 0 0 0 0 0 0 0 0 0 0 0 0 0 0 0 0 0 0 0 0 0 0 0 0 0 0 0 0 0 0 0 0 0 0 0 0 0 0
0 0 0 0 0 0 0 0 0 0 0 0 0 0 0 0 0 0 0 0 0 0 0 0 0 0 0 0 0 0 0 0 0 0 0 0 0 0 0 0 0 0 0
Wind_Speed
1 1 1 2 2 1 1 2 2 2 2 2 1 1 2 2 2 1 2 5 5 4 5 6 6 6 6 6 6 6 6 7 8 8 9 9 9 8 9 11 12 12 11
1 1 1 2 2 2 1 1 1 1 1 1 1 1 2 2 2 2 2 3 4 3 3 5 6 6 6 6 6 7 7 7 8 8 8 8 8 9 10 10 11 11 11
0 0 1 2 2 2 2 1 2 1 1 1 1 2 1 2 2 2 2 1 2 2 2 3 4 5 6 6 7 7 8 8 8 8 8 8 8 9 9 10 10 10 10
1 1 1 2 2 2 1 1 1 1 1 2 2 2 1 1 1 1 1 1 1 1 1 2 2 3 4 5 6 7 8 8 8 8 8 8 9 9 9 9 9 9 9
1 1 1 2 2 1 1 1 1 1 1 2 2 1 1 1 1 1 0 0 0 0 0 0 1 2 3 4 6 7 8 9 9 9 8 9 9 9 9 9 9 9 9
1 1 1 2 2 1 1 1 1 1 1 1 1 1 1 1 1 1 1 0 0 1 0 0 1 1 3 3 5 6 7 9 9 9 9 9 9 10 10 9 9 9 9
2 1 1 2 1 1 1 1 0 1 2 1 1 2 2 2 2 1 1 0 1 1 1 0 1 1 1 2 3 5 6 8 8 9 9 9 9 10 10 10 9 9 9
2 1 1 1 1 1 2 1 1 0 1 1 1 1 2 3 3 2 1 1 1 1 1 1 1 1 1 1 1 3 4 5 7 8 9 9 9 9 10 10 10 9 9
2 2 1 1 1 1 1 1 0 1 0 1 1 2 2 1 2 2 2 2 1 1 1 1 1 1 1 1 1 2 4 5 5 7 8 9 9 9 9 9 10 9 9
2 2 1 1 1 1 1 1 0 1 1 0 1 1 1 2 1 1 2 2 1 1 1 1 1 0 1 1 2 2 4 5 5 6 7 8 9 9 9 9 9 9 9
3 2 2 1 1 1 2 1 0 1 1 1 1 0 1 1 1 1 0 2 2 1 1 1 0 0 0 1 1 2 4 5 5 5 6 7 8 9 9 10 10 10 9
2 3 2 2 1 1 2 1 1 1 1 1 1 1 1 1 1 1 1 0 1 1 1 1 0 0 0 0 1 2 4 5 5 5 5 5 6 7 8 10 10 10 10
2 3 2 2 1 2 1 1 1 1 2 2 1 1 1 1 1 1 1 1 0 1 2 1 1 0 0 0 0 1 3 4 4 4 5 5 5 5 7 8 9 9 10
3 3 2 2 2 2 1 0 0 1 1 2 2 2 1 1 1 1 2 2 1 1 1 2 1 1 0 0 0 1 1 3 4 4 4 5 5 5 6 6 7 8 8
3 2 2 2 2 1 1 0 0 1 1 1 2 2 1 1 1 1 1 2 3 1 1 2 1 1 1 0 1 1 0 1 3 3 3 5 5 5 5 5 6 6 6
2 2 2 2 1 1 1 0 0 0 1 1 1 1 1 1 1 1 1 1 2 2 1 1 1 1 1 1 1 1 1 1 2 3 3 4 5 5 5 5 5 6 6
2 2 2 2 1 1 1 0 1 0 1 1 1 1 1 1 1 1 1 1 1 2 2 1 1 1 1 1 1 0 0 0 1 2 3 3 5 6 6 6 5 5 6
2 2 2 1 1 1 1 1 1 1 1 1 1 1 1 1 1 1 1 2 2 2 2 1 1 1 1 1 0 0 0 0 0 2 3 3 3 5 5 5 6 6 6
2 2 2 2 2 2 2 2 2 1 1 2 2 2 2 1 1 1 2 2 2 2 2 2 1 0 1 1 1 1 1 1 1 1 2 2 2 3 4 4 5 5 5
3 2 2 2 2 2 2 2 2 2 2 2 2 2 2 3 3 3 2 2 2 2 2 1 1 1 0 0 0 0 1 1 1 1 0 0 1 2 3 3 4 5 6
4 3 2 2 2 2 2 2 2 2 2 2 2 2 3 4 5 4 3 3 3 2 2 2 1 1 0 0 1 1 0 1 1 0 0 0 0 0 1 2 3 5 6
3 3 3 3 3 3 4 4 4 2 2 2 2 2 2 2 4 5 5 6 6 4 3 3 2 2 2 2 1 1 1 1 1 1 1 1 0 1 1 1 2 3 4
4 4 4 3 4 5 6 5 5 3 2 2 2 2 2 1 1 1 2 2 4 5 6 5 4 4 3 3 3 2 1 1 1 1 1 1 0 1 1 1 1 2 3
4 4 4 4 4 5 6 5 5 3 2 2 2 2 2 2 2 2 2 1 1 2 3 4 4 4 3 3 3 3 2 1 0 1 1 1 1 1 1 1 1 2 2
5 5 4 5 5 5 6 5 5 2 2 2 2 2 2 2 3 2 2 2 1 1 1 3 4 3 2 3 3 3 2 2 0 1 0 1 0 0 1 1 1 1 1
5 5 5 5 5 5 6 7 6 3 2 2 2 2 3 4 4 4 3 3 2 2 1 2 2 2 1 2 2 2 3 2 1 1 1 1 1 0 1 1 1 1 1
Wind_Direction
15 2 353 353 347 350 353 347 346 345 342 336 318 291 285 285 276 272 287 298 289 257 239 221 217 208 197 191 184 174 166 156 149 143 140 138 136 135 135 134 133 134 135
54 6 351 347 340 332 327 332 334 334 321 313 315 312 289 285 273 266 269 295 291 273 256 232 219 208 199 195 186 180 177 169 160 154 146 142 139 139 137 137 137 139 139
69 13 342 333 325 324 332 346 350 349 333 338 333 329 302 290 277 270 268 267 285 280 273 243 216 204 201 197 186 181 182 178 170 164 158 150 144 142 143 146 149 149 148
43 25 344 322 323 335 344 345 356 351 342 339 327 324 317 300 285 275 274 277 267 264 285 255 213 201 208 206 189 180 180 179 175 168 162 158 155 153 153 154 154 152 150
6 28 340 319 334 356 352 338 23 6 332 324 308 317 321 311 306 311 310 290 280 241 196 243 185 183 207 212 199 184 184 183 180 177 169 165 164 162 161 162 161 157 154
349 4 340 330 344 7 355 352 1 3 319 303 323 8 345 329 329 336 300 296 353 354 211 178 154 189 194 202 200 194 191 188 185 182 180 176 174 172 170 170 168 165 164
342 348 339 339 352 358 329 328 350 12 357 347 42 9 356 359 2 351 348 10 357 356 19 145 147 145 176 180 195 194 191 188 188 186 185 182 180 179 177 176 175 175 173
330 324 324 315 324 336 350 358 30 55 356 20 106 90 7 353 349 0 2 43 17 36 36 94 130 135 142 145 193 189 181 181 193 192 189 186 183 182 183 182 182 182 182
317 311 302 303 307 285 291 300 279 133 109 351 43 135 136 217 311 337 356 15 16 31 15 45 101 131 150 145 158 195 177 173 187 195 193 188 184 184 184 186 186 185 185
312 309 308 311 301 281 272 275 204 169 142 51 352 28 117 163 147 346 340 351 11 28 10 15 38 114 137 156 175 184 180 177 185 195 194 193 188 188 191 193 190 187 188
314 311 303 304 297 279 270 264 222 174 160 161 166 124 66 58 91 134 322 337 355 346 352 351 16 71 131 175 185 193 188 183 188 197 199 200 196 196 196 196 194 192 193
309 313 304 299 290 282 273 251 214 188 185 168 165 154 150 142 156 132 161 320 331 318 317 323 357 14 100 158 209 187 186 187 190 195 198 203 202 206 204 200 198 198 199
294 299 307 296 292 283 272 245 210 209 190 176 182 191 192 191 160 149 142 158 19 324 327 326 317 327 67 141 277 155 187 191 193 199 203 203 204 209 204 203 202 204 205
265 283 295 291 292 299 300 253 224 228 197 197 202 195 195 209 171 167 161 146 104 3 347 309 309 311 299 245 14 99 172 185 186 195 201 193 195 202 204 204 206 209 211
267 281 290 289 297 303 314 312 264 250 201 205 206 199 200 217 187 184 168 157 151 149 275 292 308 311 307 32 48 109 130 194 183 189 193 190 190 197 202 205 207 207 208
271 285 289 285 292 295 303 40 286 267 152 205 201 193 216 218 194 180 173 165 155 157 198 267 273 298 319 347 84 96 193 167 170 173 183 188 188 191 199 205 209 207 201
262 259 260 265 277 289 290 181 239 207 178 238 240 207 230 207 187 187 172 162 166 159 183 272 282 304 337 349 33 55 140 159 185 183 180 189 192 195 199 203 198 198 199
249 244 242 245 257 268 265 218 230 216 207 237 245 220 243 201 186 184 175 179 185 183 175 212 282 309 320 294 313 67 348 70 198 195 186 188 192 195 196 195 193 193 195
241 243 224 231 246 251 250 242 220 218 219 234 232 222 237 207 217 203 193 194 197 183 173 176 227 295 312 347 32 18 28 3 311 191 178 178 190 197 201 198 198 200 199
227 230 225 229 240 244 238 237 222 222 228 237 235 232 232 218 223 214 203 201 186 170 163 164 187 240 264 314 101 69 359 1 334 354 36 155 201 193 205 209 208 205 204
224 223 222 235 249 244 235 217 209 213 220 240 253 248 241 234 227 213 198 192 179 175 170 169 184 192 207 171 198 194 233 329 325 2 28 9 86 153 220 231 221 209 205
227 216 219 225 242 252 255 219 197 198 210 218 248 267 263 255 253 238 221 201 185 180 182 179 188 191 206 202 195 181 156 106 305 329 61 310 115 226 252 229 224 213 205
221 223 229 224 237 255 258 230 204 184 202 220 227 248 268 269 265 238 234 212 208 207 192 181 187 201 197 195 176 176 181 180 216 251 74 284 258 231 259 273 226 198 188
215 222 230 228 233 251 252 229 204 183 193 222 229 229 236 259 254 200 181 173 215 235 220 202 196 203 205 195 186 179 170 149 314 288 163 216 275 269 306 311 248 180 171
218 217 220 219 223 247 249 224 193 175 196 234 245 240 228 239 251 193 160 173 201 284 260 188 178 182 189 180 161 138 145 146 208 266 165 169 207 333 338 343 8 57 123
222 218 222 219 219 232 241 223 195 181 198 228 250 257 247 237 237 198 175 178 198 235 179 117 107 85 82 95 125 155 164 161 167 224 195 147 163 86 6 351 14 16 24